keiba.go.jp alexa rank chart, keiba.go.jp alexa rank daily changes

keiba.go.jp alexa rank chart, keiba.go.jp alexa rank daily changes

keiba.go.jp
Actual rank:
58 911

RANK HISTORY

Date Rank Diff
2017/11/17 58 911 +2 539
2017/11/16 56 372 -655
2017/11/15 57 027 +1 144
2017/11/14 55 883 +755
2017/11/13 55 128 +589
2017/11/12 54 539 -677
2017/11/11 55 216 +1 852
2017/11/10 53 364 +637
2017/11/09 52 727 -1 471
2017/11/08 54 198 +74
2017/11/07 54 124 +1 306
2017/11/06 52 818 +117
2017/11/05 52 701 -2 168
2017/11/04 54 869 -1 351
2017/11/03 56 220 -2 982
2017/11/02 59 202 +707
2017/11/01 58 495 -2 150
2017/10/31 60 645 -178
2017/10/30 60 823 +1 518
2017/10/29 59 305 +2 892
2017/10/28 56 413 -930
2017/10/27 57 343 -181
2017/10/26 57 524 -144
2017/10/25 57 668 +1 688
2017/10/24 55 980 +535
2017/10/23 55 445 +1 781
2017/10/22 53 664 +143
2017/10/21 53 521 -360
2017/10/20 53 881 +1 147
2017/10/19 52 734 +267
2017/10/18 52 467 -1 793
2017/10/17 54 260 -3 306
2017/10/16 57 566 +4 864
2017/10/14 52 702 -1 578
2017/10/13 54 280 -336
2017/10/12 54 616 +201
2017/10/11 54 415 -1 288
2017/10/10 55 703 -2 132
2017/10/09 57 835 +827
2017/10/08 57 008 -165
2017/10/07 57 173 +100
2017/10/06 57 073 -752
2017/10/05 57 825 +40
2017/10/04 57 785 -2 498
2017/10/03 60 283 +1 073
2017/10/02 59 210 -1 512
2017/10/01 60 722 +29
2017/09/30 60 693 -1 580
2017/09/29 62 273 -3 106
2017/09/28 65 379 -318
2017/09/27 65 697 -1 160
2017/09/26 66 857 +1 042
2017/09/25 65 815 -325
2017/09/24 66 140 +171
2017/09/23 65 969 +1 739
2017/09/22 64 230 -214
2017/09/20 64 444 -557
2017/09/19 65 001 -351
2017/09/18 65 352

WIDGET FOR YOUR SITE

DOMAINS WITH THE NEAREST RANK

Domain Rank
xpress-vpn.space 58 906
documents.mx 58 907
linkinpark.com 58 908
cutyourcravings.com 58 909
fotopus.com 58 910
keiba.go.jp 58 911
epson.co.uk 58 912
onlineregister.com 58 913
safirrail.ir 58 914
dobro-est.com 58 915
monitor.hr 58 916

DOMAINS WITH THE NEAREST RANK BY TLD .go.jp

Domain Rank
affrc.go.jp 49 317
stat.go.jp 51 640
kantei.go.jp 52 267
mof.go.jp 55 739
keiba.go.jp 58 911
e-stat.go.jp 60 221
fsa.go.jp 61 704
caa.go.jp 63 270
jma-net.go.jp 63 561
bosai.go.jp 63 941